Fallon NAS, NV

3:53 AM PDT on May 28, 2017 (GMT -0700)
Fallon Naval Air Station

Weather History for KNFL - September, 2013

Change the Weather History Date:

Sunday, September 8, 2013

  Actual Average Record
Temperature  
Mean Temperature 72 °F -  
Max Temperature 91 °F 84 °F 98 °F (2012)
Min Temperature 53 °F 46 °F 32 °F (1929)
Cooling Degree Days 7    
Growing Degree Days 22 (Base 50)    
Moisture  
Dew Point 30 °F    
Average Humidity 24    
Maximum Humidity 51    
Minimum Humidity 7    
Precipitation  
Precipitation 0.00 in - - ()
Sea Level Pressure  
Sea Level Pressure 29.92 in    
Wind  
Wind Speed 5 mph (West)    
Max Wind Speed 8 mph    
Max Gust Speed -    
Visibility 10 miles    
Events      
Averages and records for this station are not official NWS values.
T = Trace of Precipitation, MM = Missing Value Source: NWS Daily Summary

Daily Weather History Graph

Daily Weather History Graph

Search for Another Location

Airport or City:

Trip Planner

Search our weather history database for the weather conditions in past years. The results will help you decide how hot, cold, wet, or windy it might be!

Date:

Astronomy

Sep. 08, 2013 Rise Set
Actual Time 6:29 AM PDT 7:14 PM PDT
Civil Twilight 6:02 AM PDT 7:41 PM PDT
Nautical Twilight 5:30 AM PDT 8:13 PM PDT
Astronomical Twilight 4:57 AM PDT 8:46 PM PDT
Moon 9:51 AM PDT (9/8) 8:54 PM PDT (9/8)
Length of Visible Light 13h 38m
Length of Day
12h 44m
Waxing Crescent, 12% of the Moon is Illuminated
Sep 8
Waxing Crescent
Sep 12
First Quarter
Sep 19
Full
Sep 26
Last Quarter
Oct 4
New

Hourly Weather History & Observations

Time (PDT) Temp. Dew Point Humidity Pressure Visibility Wind Dir Wind Speed Gust Speed Precip Events Conditions
12:56 AM 68.0 °F 34.0 °F 28% 29.95 in 10.0 mi South 3.5 mph - N/A   Clear
1:56 AM 63.0 °F 34.0 °F 34% 29.95 in 10.0 mi West 8.1 mph - N/A   Clear
2:56 AM 62.1 °F 35.1 °F 37% 29.95 in 10.0 mi WSW 5.8 mph - N/A   Clear
3:56 AM 59.0 °F 35.1 °F 41% 29.94 in 10.0 mi WSW 4.6 mph - N/A   Clear
4:56 AM 55.9 °F 37.9 °F 51% 29.95 in 10.0 mi SW 4.6 mph - N/A   Clear
5:56 AM 54.0 °F 35.1 °F 49% 29.95 in 10.0 mi SSE 8.1 mph - N/A   Clear
6:56 AM 53.1 °F 32.0 °F 45% 29.96 in 10.0 mi South 6.9 mph - N/A   Clear
7:56 AM 62.1 °F 34.0 °F 35% 29.97 in 10.0 mi SSE 3.5 mph - N/A   Clear
8:56 AM 70.0 °F 36.0 °F 29% 29.97 in 10.0 mi SSE 4.6 mph - N/A   Clear
9:56 AM 75.0 °F 37.0 °F 25% 29.97 in 10.0 mi Calm Calm - N/A   Clear
10:56 AM 79.0 °F 34.0 °F 20% 29.96 in 10.0 mi Calm Calm - N/A   Clear
11:01 AM 80.6 °F 33.8 °F 18% 30.04 in 10.0 mi NW 3.5 mph - N/A   Scattered Clouds
11:56 AM 82.4 °F 32.0 °F 16% 29.94 in 7.0 mi Calm Calm - N/A   Scattered Clouds
12:56 PM 84.2 °F 26.6 °F 12% 29.93 in 10.0 mi SSW 3.5 mph - N/A   Scattered Clouds
1:56 PM 87.8 °F 30.2 °F 13% 29.91 in 10.0 mi West 5.8 mph - N/A   Scattered Clouds
2:56 PM 89.6 °F 28.4 °F 11% 29.88 in 10.0 mi North 5.8 mph - N/A   Scattered Clouds
3:56 PM 91.4 °F 28.4 °F 10% 29.86 in 10.0 mi NNE 4.6 mph - N/A   Partly Cloudy
4:56 PM 91.4 °F 24.8 °F 9% 29.85 in 10.0 mi Calm Calm - N/A   Scattered Clouds
5:56 PM 91.0 °F 19.9 °F 7% 29.84 in 10.0 mi North 8.1 mph - N/A   Partly Cloudy
6:56 PM 84.9 °F 24.1 °F 11% 29.84 in 10.0 mi North 8.1 mph - N/A   Partly Cloudy
7:56 PM 75.0 °F 23.0 °F 14% 29.85 in 10.0 mi North 4.6 mph - N/A   Clear
8:56 PM 69.1 °F 21.0 °F 16% 29.86 in 10.0 mi NW 5.8 mph - N/A   Clear
9:56 PM 66.0 °F 19.9 °F 17% 29.88 in 10.0 mi ENE 3.5 mph - N/A   Clear
10:56 PM 66.0 °F 19.9 °F 17% 29.88 in 10.0 mi WNW 6.9 mph - N/A   Clear
11:56 PM 57.9 °F 30.0 °F 35% 29.89 in 10.0 mi SW 3.5 mph - N/A   Clear